User: anonymous   Login
Location: Unspecified
(0.0000°N, 0.0000°E)
Time: 01:35:38
(UTC+00:00)
Language:

USA 270 - Orbit

View from above orbital plane
View from above orbital plane
View from above satellite
View from above satellite

Ground track
Ground track

The orbit data is extracted from the following two-line orbital elements,

1 41744U 16052A   17079.59428241 0.00000000  00000-0  00000-0 0    06
2 41744   0.3020  93.0090 0005180 119.7800 242.2725  1.00543659    05
Epoch (UTC): 20 March 2017 14:15:46
Eccentricity: 0.0005180
inclination: 0.3020°
perigee height: 35688 km
apogee height: 35732 km
right ascension of ascending node: 93.0090°
argument of perigee: 119.7800°
revolutions per day: 1.00543659
mean anomaly at epoch: 242.2725°
orbit number at epoch: 0

The dashed part of the orbit path shows where the satellite is in the earth's shadow,  

DLR